Year,Month,Day,Hour,Minute,Value (Times are PST for temperature in C)
2009,05,30,00,00,11.30
2009,05,30,00,01,11.30
2009,05,30,00,02,11.30
2009,05,30,00,03,11.30
2009,05,30,00,04,11.30
2009,05,30,00,05,11.30
2009,05,30,00,06,11.30
2009,05,30,00,07,11.30
2009,05,30,00,08,11.30
2009,05,30,00,09,11.30
2009,05,30,00,10,11.20
2009,05,30,00,11,11.20
2009,05,30,00,12,11.20
2009,05,30,00,13,11.10
2009,05,30,00,14,11.10
2009,05,30,00,15,11.10
2009,05,30,00,16,11.10
2009,05,30,00,17,11.10
2009,05,30,00,18,11.10
2009,05,30,00,19,11.10
2009,05,30,00,20,11.10
2009,05,30,00,21,11.10
2009,05,30,00,22,11.10
2009,05,30,00,23,11.10
2009,05,30,00,24,11.10
2009,05,30,00,25,11.10
2009,05,30,00,26,11.10
2009,05,30,00,27,11.10
2009,05,30,00,28,11.10
2009,05,30,00,29,11.10
2009,05,30,00,30,11.10
2009,05,30,00,31,11.10
2009,05,30,00,32,11.10
2009,05,30,00,33,11.10
2009,05,30,00,34,11.10
2009,05,30,00,35,11.10
2009,05,30,00,36,11.10
2009,05,30,00,37,11.10
2009,05,30,00,38,11.10
2009,05,30,00,39,11.10
2009,05,30,00,40,11.10
2009,05,30,00,41,11.10
2009,05,30,00,42,11.10
2009,05,30,00,43,11.10
2009,05,30,00,44,11.20
2009,05,30,00,45,11.20
2009,05,30,00,46,11.20
2009,05,30,00,47,11.20
2009,05,30,00,48,11.20
2009,05,30,00,49,11.20
2009,05,30,00,50,11.20
2009,05,30,00,51,11.20
2009,05,30,00,52,11.20
2009,05,30,00,53,11.20
2009,05,30,00,54,11.30
2009,05,30,00,55,11.30
2009,05,30,00,56,11.30
2009,05,30,00,57,11.30
2009,05,30,00,58,11.30
2009,05,30,00,59,11.30
2009,05,30,01,00,11.30
2009,05,30,01,01,11.30
2009,05,30,01,02,11.30
2009,05,30,01,03,11.40
2009,05,30,01,04,11.40
2009,05,30,01,05,11.40
2009,05,30,01,06,11.40
2009,05,30,01,07,11.50
2009,05,30,01,08,11.60
2009,05,30,01,09,11.60
2009,05,30,01,10,11.60
2009,05,30,01,11,11.60
2009,05,30,01,12,11.60
2009,05,30,01,13,11.60
2009,05,30,01,14,11.60
2009,05,30,01,15,11.60
2009,05,30,01,16,11.60
2009,05,30,01,17,11.60
2009,05,30,01,18,11.60
2009,05,30,01,19,11.60
2009,05,30,01,20,11.60
2009,05,30,01,21,11.60
2009,05,30,01,22,11.60
2009,05,30,01,23,11.60
2009,05,30,01,24,11.60
2009,05,30,01,25,11.60
2009,05,30,01,26,11.60
2009,05,30,01,27,11.70
2009,05,30,01,28,11.70
2009,05,30,01,29,11.60
2009,05,30,01,30,11.60
2009,05,30,01,31,11.60
2009,05,30,01,32,11.60
2009,05,30,01,33,11.60
2009,05,30,01,34,11.60
2009,05,30,01,35,11.60
2009,05,30,01,36,11.60
2009,05,30,01,37,11.50
2009,05,30,01,38,11.40
2009,05,30,01,39,11.40
2009,05,30,01,40,11.40
2009,05,30,01,41,11.40
2009,05,30,01,42,11.40
2009,05,30,01,43,11.40
2009,05,30,01,44,11.40
2009,05,30,01,45,11.40
2009,05,30,01,46,11.40
2009,05,30,01,47,11.40
2009,05,30,01,48,11.40
2009,05,30,01,49,11.40
2009,05,30,01,50,11.30
2009,05,30,01,51,11.30
2009,05,30,01,52,11.30
2009,05,30,01,53,11.30
2009,05,30,01,54,11.30
2009,05,30,01,55,11.30
2009,05,30,01,56,11.30
2009,05,30,01,57,11.30
2009,05,30,01,58,11.30
2009,05,30,01,59,11.30
2009,05,30,02,00,11.30
2009,05,30,02,01,11.30
2009,05,30,02,02,11.30
2009,05,30,02,03,11.30
2009,05,30,02,04,11.30
2009,05,30,02,05,11.30
2009,05,30,02,06,11.30
2009,05,30,02,07,11.30
2009,05,30,02,08,11.30
2009,05,30,02,09,11.30
2009,05,30,02,10,11.30
2009,05,30,02,11,11.30
2009,05,30,02,12,11.30
2009,05,30,02,13,11.30
2009,05,30,02,14,11.20
2009,05,30,02,15,11.20
2009,05,30,02,16,11.20
2009,05,30,02,17,11.20
2009,05,30,02,18,11.20
2009,05,30,02,19,11.10
2009,05,30,02,20,11.10
2009,05,30,02,21,11.10
2009,05,30,02,22,11.10
2009,05,30,02,23,11.00
2009,05,30,02,24,10.90
2009,05,30,02,25,10.90
2009,05,30,02,26,10.90
2009,05,30,02,27,10.90
2009,05,30,02,28,10.90
2009,05,30,02,29,10.90
2009,05,30,02,30,10.90
2009,05,30,02,31,10.90
2009,05,30,02,32,10.90
2009,05,30,02,33,10.90
2009,05,30,02,34,10.90
2009,05,30,02,35,10.90
2009,05,30,02,36,10.90
2009,05,30,02,37,10.90
2009,05,30,02,38,10.90
2009,05,30,02,39,10.90
2009,05,30,02,40,10.90
2009,05,30,02,41,10.90
2009,05,30,02,42,10.90
2009,05,30,02,43,10.90
2009,05,30,02,44,10.90
2009,05,30,02,45,10.90
2009,05,30,02,46,10.90
2009,05,30,02,47,10.90
2009,05,30,02,48,10.90
2009,05,30,02,49,10.80
2009,05,30,02,50,10.70
2009,05,30,02,51,10.60
2009,05,30,02,52,10.50
2009,05,30,02,53,10.40
2009,05,30,02,54,10.40
2009,05,30,02,55,10.40
2009,05,30,02,56,10.30
2009,05,30,02,57,10.30
2009,05,30,02,58,10.20
2009,05,30,02,59,10.10
2009,05,30,03,00,10.10
2009,05,30,03,01,10.10
2009,05,30,03,02,10.10
2009,05,30,03,03,10.10
2009,05,30,03,04,10.10
2009,05,30,03,05,10.10
2009,05,30,03,06,9.90
2009,05,30,03,07,9.90
2009,05,30,03,08,9.90
2009,05,30,03,09,9.90
2009,05,30,03,10,9.90
2009,05,30,03,11,9.90
2009,05,30,03,12,9.90
2009,05,30,03,13,9.90
2009,05,30,03,14,9.90
2009,05,30,03,15,9.90
2009,05,30,03,16,9.80
2009,05,30,03,17,9.80
2009,05,30,03,18,9.80
2009,05,30,03,19,9.80
2009,05,30,03,20,9.80
2009,05,30,03,21,9.80
2009,05,30,03,22,9.70
2009,05,30,03,23,9.70
2009,05,30,03,24,9.70
2009,05,30,03,25,9.70
2009,05,30,03,26,9.70
2009,05,30,03,27,9.70
2009,05,30,03,28,9.70
2009,05,30,03,29,9.70
2009,05,30,03,30,9.70
2009,05,30,03,31,9.70
2009,05,30,03,32,9.70
2009,05,30,03,33,9.70
2009,05,30,03,34,9.70
2009,05,30,03,35,9.70
2009,05,30,03,36,9.70
2009,05,30,03,37,9.70
2009,05,30,03,38,9.70
2009,05,30,03,39,9.70
2009,05,30,03,40,9.70
2009,05,30,03,41,9.60
2009,05,30,03,42,9.60
2009,05,30,03,43,9.60
2009,05,30,03,44,9.50
2009,05,30,03,45,9.50
2009,05,30,03,46,9.50
2009,05,30,03,47,9.40
2009,05,30,03,48,9.40
2009,05,30,03,49,9.40
2009,05,30,03,50,9.50
2009,05,30,03,51,9.50
2009,05,30,03,52,9.50
2009,05,30,03,53,9.50
2009,05,30,03,54,9.50
2009,05,30,03,55,9.50
2009,05,30,03,56,9.50
2009,05,30,03,57,9.50
2009,05,30,03,58,9.50
2009,05,30,03,59,9.50
2009,05,30,04,00,9.50
2009,05,30,04,01,9.50
2009,05,30,04,02,9.50
2009,05,30,04,03,9.50
2009,05,30,04,04,9.50
2009,05,30,04,05,9.40
2009,05,30,04,06,9.40
2009,05,30,04,07,9.40
2009,05,30,04,08,9.40
2009,05,30,04,09,9.40
2009,05,30,04,10,9.40
2009,05,30,04,11,9.40
2009,05,30,04,12,9.40
2009,05,30,04,13,9.30
2009,05,30,04,14,9.30
2009,05,30,04,15,9.30
2009,05,30,04,16,9.30
2009,05,30,04,17,9.30
2009,05,30,04,18,9.30
2009,05,30,04,19,9.30
2009,05,30,04,20,9.30
2009,05,30,04,21,9.30
2009,05,30,04,22,9.30
2009,05,30,04,23,9.30
2009,05,30,04,24,9.40
2009,05,30,04,25,9.40
2009,05,30,04,26,9.40
2009,05,30,04,27,9.40
2009,05,30,04,28,9.40
2009,05,30,04,29,9.40
2009,05,30,04,30,9.40
2009,05,30,04,31,9.40
2009,05,30,04,32,9.40
2009,05,30,04,33,9.30
2009,05,30,04,34,9.30
2009,05,30,04,35,9.30
2009,05,30,04,36,9.30
2009,05,30,04,37,9.30
2009,05,30,04,38,9.30
2009,05,30,04,39,9.30
2009,05,30,04,40,9.30
2009,05,30,04,41,9.30
2009,05,30,04,42,9.30
2009,05,30,04,43,9.30
2009,05,30,04,44,9.30
2009,05,30,04,45,9.30
2009,05,30,04,46,9.30
2009,05,30,04,47,9.30
2009,05,30,04,48,9.30
2009,05,30,04,49,9.30
2009,05,30,04,50,9.30
2009,05,30,04,51,9.30
2009,05,30,04,52,9.30
2009,05,30,04,53,9.30
2009,05,30,04,54,9.30
2009,05,30,04,55,9.30
2009,05,30,04,56,9.40
2009,05,30,04,57,9.30
2009,05,30,04,58,9.30
2009,05,30,04,59,9.30
2009,05,30,05,00,9.30
2009,05,30,05,01,9.30
2009,05,30,05,02,9.20
2009,05,30,05,03,9.20
2009,05,30,05,04,9.20
2009,05,30,05,05,9.20
2009,05,30,05,06,9.20
2009,05,30,05,07,9.20
2009,05,30,05,08,9.20
2009,05,30,05,09,9.20
2009,05,30,05,10,9.20
2009,05,30,05,11,9.10
2009,05,30,05,12,9.10
2009,05,30,05,13,9.10
2009,05,30,05,14,9.10
2009,05,30,05,15,9.10
2009,05,30,05,16,9.10
2009,05,30,05,17,9.10
2009,05,30,05,18,9.10
2009,05,30,05,19,9.10
2009,05,30,05,20,9.10
2009,05,30,05,21,9.10
2009,05,30,05,22,9.10
2009,05,30,05,23,9.00
2009,05,30,05,24,9.00
2009,05,30,05,25,9.00
2009,05,30,05,26,9.00
2009,05,30,05,27,9.00
2009,05,30,05,28,8.90
2009,05,30,05,29,8.90
2009,05,30,05,30,8.90
2009,05,30,05,31,8.90
2009,05,30,05,32,8.90
2009,05,30,05,33,8.90
2009,05,30,05,34,8.90
2009,05,30,05,35,9.00
2009,05,30,05,36,9.00
2009,05,30,05,37,9.00
2009,05,30,05,38,9.00
2009,05,30,05,39,9.00
2009,05,30,05,40,9.00
2009,05,30,05,41,9.10
2009,05,30,05,42,9.10
2009,05,30,05,43,9.10
2009,05,30,05,44,9.10
2009,05,30,05,45,9.20
2009,05,30,05,46,9.20
2009,05,30,05,47,9.20
2009,05,30,05,48,9.20
2009,05,30,05,49,9.20
2009,05,30,05,50,9.20
2009,05,30,05,51,9.30
2009,05,30,05,52,9.30
2009,05,30,05,53,9.40
2009,05,30,05,54,9.40
2009,05,30,05,55,9.40
2009,05,30,05,56,9.40
2009,05,30,05,57,9.40
2009,05,30,05,58,9.50
2009,05,30,05,59,9.50
2009,05,30,06,00,9.50
2009,05,30,06,01,9.50
2009,05,30,06,02,9.50
2009,05,30,06,03,9.60
2009,05,30,06,04,9.60
2009,05,30,06,05,9.60
2009,05,30,06,06,9.70
2009,05,30,06,07,9.70
2009,05,30,06,08,9.70
2009,05,30,06,09,9.70
2009,05,30,06,10,9.70
2009,05,30,06,11,9.70
2009,05,30,06,12,9.70
2009,05,30,06,13,9.80
2009,05,30,06,14,9.80
2009,05,30,06,15,9.80
2009,05,30,06,16,9.90
2009,05,30,06,17,9.90
2009,05,30,06,18,9.90
2009,05,30,06,19,9.90
2009,05,30,06,20,9.90
2009,05,30,06,21,9.90
2009,05,30,06,22,9.90
2009,05,30,06,23,10.00
2009,05,30,06,24,10.10
2009,05,30,06,25,10.10
2009,05,30,06,26,10.10
2009,05,30,06,27,10.10
2009,05,30,06,28,10.10
2009,05,30,06,29,10.20
2009,05,30,06,30,10.20
2009,05,30,06,31,10.20
2009,05,30,06,32,10.30
2009,05,30,06,33,10.30
2009,05,30,06,34,10.40
2009,05,30,06,35,10.40
2009,05,30,06,36,10.50
2009,05,30,06,37,10.60
2009,05,30,06,38,10.60
2009,05,30,06,39,10.70
2009,05,30,06,40,10.80
2009,05,30,06,41,10.90
2009,05,30,06,42,11.00
2009,05,30,06,43,11.10
2009,05,30,06,44,11.20
2009,05,30,06,45,11.20
2009,05,30,06,46,11.30
2009,05,30,06,47,11.30
2009,05,30,06,48,11.40
2009,05,30,06,49,11.40
2009,05,30,06,50,11.40
2009,05,30,06,51,11.40
2009,05,30,06,52,11.50
2009,05,30,06,53,11.60
2009,05,30,06,54,11.60
2009,05,30,06,55,11.60
2009,05,30,06,56,11.70
2009,05,30,06,57,11.70
2009,05,30,06,58,11.70
2009,05,30,06,59,11.80
2009,05,30,07,00,11.80
2009,05,30,07,01,11.80
2009,05,30,07,02,11.80
2009,05,30,07,03,11.90
2009,05,30,07,04,12.00
2009,05,30,07,05,12.00
2009,05,30,07,06,12.00
2009,05,30,07,07,12.00
2009,05,30,07,08,12.00
2009,05,30,07,09,12.00
2009,05,30,07,10,12.00
2009,05,30,07,11,11.90
2009,05,30,07,12,11.90
2009,05,30,07,13,11.80
2009,05,30,07,14,11.80
2009,05,30,07,15,11.80
2009,05,30,07,16,11.70
2009,05,30,07,17,11.70
2009,05,30,07,18,11.60
2009,05,30,07,19,11.60
2009,05,30,07,20,11.60
2009,05,30,07,21,11.50
2009,05,30,07,22,11.40
2009,05,30,07,23,11.30
2009,05,30,07,24,11.30
2009,05,30,07,25,11.20
2009,05,30,07,26,11.20
2009,05,30,07,27,11.10
2009,05,30,07,28,11.10
2009,05,30,07,29,11.10
2009,05,30,07,30,11.10
2009,05,30,07,31,11.10
2009,05,30,07,32,11.10
2009,05,30,07,33,11.10
2009,05,30,07,34,10.90
2009,05,30,07,35,10.90
2009,05,30,07,36,10.90
2009,05,30,07,37,10.90
2009,05,30,07,38,10.80
2009,05,30,07,39,10.70
2009,05,30,07,40,10.60
2009,05,30,07,41,10.60
2009,05,30,07,42,10.60
2009,05,30,07,43,10.60
2009,05,30,07,44,10.60
2009,05,30,07,45,10.60
2009,05,30,07,46,10.60
2009,05,30,07,47,10.50
2009,05,30,07,48,10.40
2009,05,30,07,49,10.40
2009,05,30,07,50,10.50
2009,05,30,07,51,10.60
2009,05,30,07,52,10.60
2009,05,30,07,53,10.60
2009,05,30,07,54,10.70
2009,05,30,07,55,10.70
2009,05,30,07,56,10.80
2009,05,30,07,57,10.90
2009,05,30,07,58,10.90
2009,05,30,07,59,11.00
2009,05,30,08,00,11.10
2009,05,30,08,01,11.10
2009,05,30,08,02,11.20
2009,05,30,08,03,11.20
2009,05,30,08,04,11.30
2009,05,30,08,05,11.30
2009,05,30,08,06,11.30
2009,05,30,08,07,11.40
2009,05,30,08,08,11.40
2009,05,30,08,09,11.40
2009,05,30,08,10,11.40
2009,05,30,08,11,11.40
2009,05,30,08,12,11.40
2009,05,30,08,13,11.40
2009,05,30,08,14,11.40
2009,05,30,08,15,11.60
2009,05,30,08,16,11.60
2009,05,30,08,17,11.60
2009,05,30,08,18,11.70
2009,05,30,08,19,11.80
2009,05,30,08,20,11.80
2009,05,30,08,21,11.80
2009,05,30,08,22,11.90
2009,05,30,08,23,11.90
2009,05,30,08,24,12.00
2009,05,30,08,25,12.00
2009,05,30,08,26,12.10
2009,05,30,08,27,12.20
2009,05,30,08,28,12.30
2009,05,30,08,29,12.30
2009,05,30,08,30,12.30
2009,05,30,08,31,12.30
2009,05,30,08,32,12.40
2009,05,30,08,33,12.40
2009,05,30,08,34,12.40
2009,05,30,08,35,12.50
2009,05,30,08,36,12.50
2009,05,30,08,37,12.50
2009,05,30,08,38,12.50
2009,05,30,08,39,12.60
2009,05,30,08,40,12.60
2009,05,30,08,41,12.60
2009,05,30,08,42,12.60
2009,05,30,08,43,12.60
2009,05,30,08,44,12.60
2009,05,30,08,45,12.70
2009,05,30,08,46,12.70
2009,05,30,08,47,12.80
2009,05,30,08,48,12.80
2009,05,30,08,49,12.80
2009,05,30,08,50,12.80
2009,05,30,08,51,12.90
2009,05,30,08,52,12.90
2009,05,30,08,53,12.90
2009,05,30,08,54,12.90
2009,05,30,08,55,12.90
2009,05,30,08,56,13.00
2009,05,30,08,57,13.00
2009,05,30,08,58,13.10
2009,05,30,08,59,13.10
2009,05,30,09,00,13.10
2009,05,30,09,01,13.10
2009,05,30,09,02,13.10
2009,05,30,09,03,13.10
2009,05,30,09,04,13.10
2009,05,30,09,05,12.90
2009,05,30,09,06,12.70
2009,05,30,09,07,12.60
2009,05,30,09,08,12.50
2009,05,30,09,09,12.50
2009,05,30,09,10,12.60
2009,05,30,09,11,12.60
2009,05,30,09,12,12.60
2009,05,30,09,13,12.60
2009,05,30,09,14,12.60
2009,05,30,09,15,12.50
2009,05,30,09,16,12.50
2009,05,30,09,17,12.40
2009,05,30,09,18,12.30
2009,05,30,09,19,12.30
2009,05,30,09,20,12.30
2009,05,30,09,21,12.30
2009,05,30,09,22,12.30
2009,05,30,09,23,12.30
2009,05,30,09,24,12.30
2009,05,30,09,25,12.30
2009,05,30,09,26,12.30
2009,05,30,09,27,12.20
2009,05,30,09,28,12.20
2009,05,30,09,29,12.30
2009,05,30,09,30,12.20
2009,05,30,09,31,12.20
2009,05,30,09,32,12.20
2009,05,30,09,33,12.20
2009,05,30,09,34,12.10
2009,05,30,09,35,12.10
2009,05,30,09,36,12.20
2009,05,30,09,37,12.20
2009,05,30,09,38,12.30
2009,05,30,09,39,12.30
2009,05,30,09,40,12.40
2009,05,30,09,41,12.40
2009,05,30,09,42,12.50
2009,05,30,09,43,12.60
2009,05,30,09,44,12.70
2009,05,30,09,45,12.80
2009,05,30,09,46,12.80
2009,05,30,09,47,12.80
2009,05,30,09,48,12.90
2009,05,30,09,49,12.90
2009,05,30,09,50,12.90
2009,05,30,09,51,12.90
2009,05,30,09,52,13.00
2009,05,30,09,53,13.00
2009,05,30,09,54,13.00
2009,05,30,09,55,13.00
2009,05,30,09,56,13.10
2009,05,30,09,57,13.10
2009,05,30,09,58,13.10
2009,05,30,09,59,13.10
2009,05,30,10,00,13.20
2009,05,30,10,01,13.30
2009,05,30,10,02,13.30
2009,05,30,10,03,13.30
2009,05,30,10,04,13.30
2009,05,30,10,05,13.30
2009,05,30,10,06,13.30
2009,05,30,10,07,13.30
2009,05,30,10,08,13.40
2009,05,30,10,09,13.40
2009,05,30,10,10,13.50
2009,05,30,10,11,13.60
2009,05,30,10,12,13.60
2009,05,30,10,13,13.70
2009,05,30,10,14,13.70
2009,05,30,10,15,13.80
2009,05,30,10,16,13.90
2009,05,30,10,17,14.00
2009,05,30,10,18,14.00
2009,05,30,10,19,14.10
2009,05,30,10,20,14.20
2009,05,30,10,21,14.30
2009,05,30,10,22,14.30
2009,05,30,10,23,14.40
2009,05,30,10,24,14.50
2009,05,30,10,25,14.60
2009,05,30,10,26,14.60
2009,05,30,10,27,14.70
2009,05,30,10,28,14.80
2009,05,30,10,29,14.80
2009,05,30,10,30,14.80
2009,05,30,10,31,14.90
2009,05,30,10,32,15.00
2009,05,30,10,33,15.00
2009,05,30,10,34,15.00
2009,05,30,10,35,15.00
2009,05,30,10,36,15.00
2009,05,30,10,37,15.10
2009,05,30,10,38,15.10
2009,05,30,10,39,15.20
2009,05,30,10,40,15.20
2009,05,30,10,41,15.30
2009,05,30,10,42,15.30
2009,05,30,10,43,15.40
2009,05,30,10,44,15.50
2009,05,30,10,45,15.50
2009,05,30,10,46,15.50
2009,05,30,10,47,15.40
2009,05,30,10,48,15.40
2009,05,30,10,49,15.40
2009,05,30,10,50,15.50
2009,05,30,10,51,15.50
2009,05,30,10,52,15.60
2009,05,30,10,53,15.70
2009,05,30,10,54,15.70
2009,05,30,10,55,15.70
2009,05,30,10,56,15.70
2009,05,30,10,57,15.80
2009,05,30,10,58,15.90
2009,05,30,10,59,15.90
2009,05,30,11,00,16.00
2009,05,30,11,01,16.10
2009,05,30,11,02,16.10
2009,05,30,11,03,16.10
2009,05,30,11,04,16.10
2009,05,30,11,05,16.20
2009,05,30,11,06,16.10
2009,05,30,11,07,16.20
2009,05,30,11,08,16.30
2009,05,30,11,09,16.30
2009,05,30,11,10,16.20
2009,05,30,11,11,16.10
2009,05,30,11,12,16.10
2009,05,30,11,13,16.10
2009,05,30,11,14,16.10
2009,05,30,11,15,16.10
2009,05,30,11,16,16.10
2009,05,30,11,17,16.10
2009,05,30,11,18,16.20
2009,05,30,11,19,16.20
2009,05,30,11,20,16.20
2009,05,30,11,21,16.20
2009,05,30,11,22,16.30
2009,05,30,11,23,16.40
2009,05,30,11,24,16.60
2009,05,30,11,25,16.70
2009,05,30,11,26,16.70
2009,05,30,11,27,16.70
2009,05,30,11,28,16.50
2009,05,30,11,29,16.40
2009,05,30,11,30,16.40
2009,05,30,11,31,16.40
2009,05,30,11,32,16.40
2009,05,30,11,33,16.40
2009,05,30,11,34,16.40
2009,05,30,11,35,16.40
2009,05,30,11,36,16.40
2009,05,30,11,37,16.50
2009,05,30,11,38,16.60
2009,05,30,11,39,16.60
2009,05,30,11,40,16.70
2009,05,30,11,41,16.70
2009,05,30,11,42,16.80
2009,05,30,11,43,16.80
2009,05,30,11,44,16.80
2009,05,30,11,45,16.70
2009,05,30,11,46,16.70
2009,05,30,11,47,16.70
2009,05,30,11,48,16.60
2009,05,30,11,49,16.60
2009,05,30,11,50,16.60
2009,05,30,11,51,16.60
2009,05,30,11,52,16.60
2009,05,30,11,53,16.50
2009,05,30,11,54,16.40
2009,05,30,11,55,16.40
2009,05,30,11,56,16.60
2009,05,30,11,57,16.60
2009,05,30,11,58,16.60
2009,05,30,11,59,16.60
2009,05,30,12,00,16.60
2009,05,30,12,01,16.70
2009,05,30,12,02,16.80
2009,05,30,12,03,17.00
2009,05,30,12,04,17.00
2009,05,30,12,05,16.90
2009,05,30,12,06,16.90
2009,05,30,12,07,16.80
2009,05,30,12,08,16.70
2009,05,30,12,09,16.70
2009,05,30,12,10,16.70
2009,05,30,12,11,16.70
2009,05,30,12,12,16.70
2009,05,30,12,13,16.70
2009,05,30,12,14,16.60
2009,05,30,12,15,16.60
2009,05,30,12,16,16.60
2009,05,30,12,17,16.60
2009,05,30,12,18,16.50
2009,05,30,12,19,16.40
2009,05,30,12,20,16.60
2009,05,30,12,21,16.50
2009,05,30,12,22,16.40
2009,05,30,12,23,16.40
2009,05,30,12,24,16.40
2009,05,30,12,25,16.40
2009,05,30,12,26,16.40
2009,05,30,12,27,16.40
2009,05,30,12,28,16.40
2009,05,30,12,29,16.50
2009,05,30,12,30,16.60
2009,05,30,12,31,16.70
2009,05,30,12,32,16.80
2009,05,30,12,33,17.00
2009,05,30,12,34,17.00
2009,05,30,12,35,17.10
2009,05,30,12,36,17.10
2009,05,30,12,37,17.10
2009,05,30,12,38,17.10
2009,05,30,12,39,17.00
2009,05,30,12,40,17.00
2009,05,30,12,41,17.00
2009,05,30,12,42,17.10
2009,05,30,12,43,17.20
2009,05,30,12,44,17.20
2009,05,30,12,45,17.20
2009,05,30,12,46,17.20
2009,05,30,12,47,17.30
2009,05,30,12,48,17.20
2009,05,30,12,49,17.10
2009,05,30,12,50,16.90
2009,05,30,12,51,16.90
2009,05,30,12,52,16.90
2009,05,30,12,53,17.00
2009,05,30,12,54,17.00
2009,05,30,12,55,17.00
2009,05,30,12,56,17.00
2009,05,30,12,57,17.00
2009,05,30,12,58,17.10
2009,05,30,12,59,17.10
2009,05,30,13,00,17.10
2009,05,30,13,01,17.10
2009,05,30,13,02,17.10
2009,05,30,13,03,17.10
2009,05,30,13,04,17.20
2009,05,30,13,05,17.20
2009,05,30,13,06,17.30
2009,05,30,13,07,17.30
2009,05,30,13,08,17.40
2009,05,30,13,09,17.40
2009,05,30,13,10,17.40
2009,05,30,13,11,17.30
2009,05,30,13,12,17.30
2009,05,30,13,13,17.40
2009,05,30,13,14,17.40
2009,05,30,13,15,17.40
2009,05,30,13,16,17.40
2009,05,30,13,17,17.40
2009,05,30,13,18,17.40
2009,05,30,13,19,17.40
2009,05,30,13,20,17.40
2009,05,30,13,21,17.50
2009,05,30,13,22,17.40
2009,05,30,13,23,17.30
2009,05,30,13,24,17.20
2009,05,30,13,25,17.10
2009,05,30,13,26,17.00
2009,05,30,13,27,17.10
2009,05,30,13,28,17.10
2009,05,30,13,29,17.20
2009,05,30,13,30,17.30
2009,05,30,13,31,17.30
2009,05,30,13,32,17.50
2009,05,30,13,33,17.60
2009,05,30,13,34,17.70
2009,05,30,13,35,17.70
2009,05,30,13,36,17.80
2009,05,30,13,37,17.80
2009,05,30,13,38,17.90
2009,05,30,13,39,17.90
2009,05,30,13,40,17.90
2009,05,30,13,41,18.00
2009,05,30,13,42,18.10
2009,05,30,13,43,18.20
2009,05,30,13,44,18.20
2009,05,30,13,45,18.20
2009,05,30,13,46,18.20
2009,05,30,13,47,18.10
2009,05,30,13,48,18.00
2009,05,30,13,49,17.90
2009,05,30,13,50,17.90
2009,05,30,13,51,18.00
2009,05,30,13,52,18.00
2009,05,30,13,53,17.90
2009,05,30,13,54,17.90
2009,05,30,13,55,17.80
2009,05,30,13,56,17.80
2009,05,30,13,57,17.70
2009,05,30,13,58,17.60
2009,05,30,13,59,17.60
2009,05,30,14,00,17.60
2009,05,30,14,01,17.60
2009,05,30,14,02,17.60
2009,05,30,14,03,17.60
2009,05,30,14,04,17.70
2009,05,30,14,05,17.70
2009,05,30,14,06,17.80
2009,05,30,14,07,17.80
2009,05,30,14,08,17.80
2009,05,30,14,09,17.80
2009,05,30,14,10,17.80
2009,05,30,14,11,17.80
2009,05,30,14,12,17.80
2009,05,30,14,13,17.80
2009,05,30,14,14,17.80
2009,05,30,14,15,17.70
2009,05,30,14,16,17.70
2009,05,30,14,17,17.70
2009,05,30,14,18,17.70
2009,05,30,14,19,17.80
2009,05,30,14,20,17.80
2009,05,30,14,21,17.80
2009,05,30,14,22,17.90
2009,05,30,14,23,17.90
2009,05,30,14,24,17.90
2009,05,30,14,25,17.90
2009,05,30,14,26,17.90
2009,05,30,14,27,18.10
2009,05,30,14,28,18.00
2009,05,30,14,29,17.90
2009,05,30,14,30,18.00
2009,05,30,14,31,18.00
2009,05,30,14,32,18.10
2009,05,30,14,33,18.20
2009,05,30,14,34,18.20
2009,05,30,14,35,18.10
2009,05,30,14,36,18.10
2009,05,30,14,37,18.10
2009,05,30,14,38,18.10
2009,05,30,14,39,18.20
2009,05,30,14,40,18.30
2009,05,30,14,41,18.30
2009,05,30,14,42,18.40
2009,05,30,14,43,18.50
2009,05,30,14,44,18.50
2009,05,30,14,45,18.50
2009,05,30,14,46,18.50
2009,05,30,14,47,18.50
2009,05,30,14,48,18.50
2009,05,30,14,49,18.50
2009,05,30,14,50,18.60
2009,05,30,14,51,18.60
2009,05,30,14,52,18.70
2009,05,30,14,53,18.90
2009,05,30,14,54,19.00
2009,05,30,14,55,19.10
2009,05,30,14,56,19.20
2009,05,30,14,57,19.20
2009,05,30,14,58,19.30
2009,05,30,14,59,19.40
2009,05,30,15,00,19.50
2009,05,30,15,01,19.60
2009,05,30,15,02,19.60
2009,05,30,15,03,19.50
2009,05,30,15,04,19.40
2009,05,30,15,05,19.40
2009,05,30,15,06,19.30
2009,05,30,15,07,19.30
2009,05,30,15,08,19.30
2009,05,30,15,09,19.30
2009,05,30,15,10,19.30
2009,05,30,15,11,19.30
2009,05,30,15,12,19.30
2009,05,30,15,13,19.20
2009,05,30,15,14,19.10
2009,05,30,15,15,19.10
2009,05,30,15,16,19.10
2009,05,30,15,17,19.10
2009,05,30,15,18,19.10
2009,05,30,15,19,19.10
2009,05,30,15,20,19.10
2009,05,30,15,21,19.10
2009,05,30,15,22,19.20
2009,05,30,15,23,19.30
2009,05,30,15,24,19.30
2009,05,30,15,25,19.20
2009,05,30,15,26,19.00
2009,05,30,15,27,18.90
2009,05,30,15,28,18.90
2009,05,30,15,29,19.00
2009,05,30,15,30,19.10
2009,05,30,15,31,19.10
2009,05,30,15,32,19.20
2009,05,30,15,33,19.20
2009,05,30,15,34,19.20
2009,05,30,15,35,19.10
2009,05,30,15,36,19.10
2009,05,30,15,37,19.10
2009,05,30,15,38,19.10
2009,05,30,15,39,19.10
2009,05,30,15,40,19.10
2009,05,30,15,41,19.00
2009,05,30,15,42,18.90
2009,05,30,15,43,18.80
2009,05,30,15,44,18.80
2009,05,30,15,45,18.80
2009,05,30,15,46,18.80
2009,05,30,15,47,18.90
2009,05,30,15,48,18.90
2009,05,30,15,49,18.90
2009,05,30,15,50,18.90
2009,05,30,15,51,18.90
2009,05,30,15,52,18.90
2009,05,30,15,53,18.90
2009,05,30,15,54,18.90
2009,05,30,15,55,18.90
2009,05,30,15,56,18.90
2009,05,30,15,57,18.90
2009,05,30,15,58,18.90
2009,05,30,15,59,19.00
2009,05,30,16,00,19.10
2009,05,30,16,01,19.10
2009,05,30,16,02,19.20
2009,05,30,16,03,19.30
2009,05,30,16,04,19.30
2009,05,30,16,05,19.30
2009,05,30,16,06,19.30
2009,05,30,16,07,19.30
2009,05,30,16,08,19.30
2009,05,30,16,09,19.40
2009,05,30,16,10,19.40
2009,05,30,16,11,19.40
2009,05,30,16,12,19.50
2009,05,30,16,13,19.50
2009,05,30,16,14,19.50
2009,05,30,16,15,19.60
2009,05,30,16,16,19.60
2009,05,30,16,17,19.70
2009,05,30,16,18,19.80
2009,05,30,16,19,19.90
2009,05,30,16,20,19.90
2009,05,30,16,21,20.00
2009,05,30,16,22,20.10
2009,05,30,16,23,20.00
2009,05,30,16,24,19.90
2009,05,30,16,25,19.90
2009,05,30,16,26,19.90
2009,05,30,16,27,20.00
2009,05,30,16,28,20.10
2009,05,30,16,29,20.10
2009,05,30,16,30,20.10
2009,05,30,16,31,20.10
2009,05,30,16,32,20.20
2009,05,30,16,33,20.20
2009,05,30,16,34,20.30
2009,05,30,16,35,20.50
2009,05,30,16,36,20.60
2009,05,30,16,37,20.80
2009,05,30,16,38,21.00
2009,05,30,16,39,21.00
2009,05,30,16,40,21.10
2009,05,30,16,41,21.20
2009,05,30,16,42,21.20
2009,05,30,16,43,21.10
2009,05,30,16,44,21.20
2009,05,30,16,45,21.20
2009,05,30,16,46,21.20
2009,05,30,16,47,21.20
2009,05,30,16,48,21.20
2009,05,30,16,49,21.20
2009,05,30,16,50,21.20
2009,05,30,16,51,21.10
2009,05,30,16,52,21.10
2009,05,30,16,53,21.20
2009,05,30,16,54,21.20
2009,05,30,16,55,21.10
2009,05,30,16,56,21.00
2009,05,30,16,57,20.90
2009,05,30,16,58,20.90
2009,05,30,16,59,20.90
2009,05,30,17,00,21.00
2009,05,30,17,01,21.10
2009,05,30,17,02,21.10
2009,05,30,17,03,21.20
2009,05,30,17,04,21.20
2009,05,30,17,05,21.30
2009,05,30,17,06,21.30
2009,05,30,17,07,21.30
2009,05,30,17,08,21.30
2009,05,30,17,09,21.30
2009,05,30,17,10,21.30
2009,05,30,17,11,21.30
2009,05,30,17,12,21.40
2009,05,30,17,13,21.40
2009,05,30,17,14,21.50
2009,05,30,17,15,21.60
2009,05,30,17,16,21.60
2009,05,30,17,17,21.50
2009,05,30,17,18,21.40
2009,05,30,17,19,21.30
2009,05,30,17,20,21.30
2009,05,30,17,21,21.30
2009,05,30,17,22,21.30
2009,05,30,17,23,21.30
2009,05,30,17,24,21.30
2009,05,30,17,25,21.30
2009,05,30,17,26,21.20
2009,05,30,17,27,21.20
2009,05,30,17,28,21.30